Location: Howard City Library
(37.4684°N, 96.2639°W)
Time: 18:29:43
(UTC+00:00)

PSLV R/B - Pass Details

Date: 18 February 2020
Orbit: 505 x 578 km, 97.8° (Epoch: 01 April)

Event Time Altitude Azimuth Distance (km) Brightness Sun altitude
Rises 11:40:03 0° 10° (N) 2,626 7.4 -18.7°
Reaches altitude 10° 11:42:08 10° 9° (N) 1,742 6.5 -18.3°
Maximum altitude 11:45:52 76° 284° (WNW) 539 3.5 -17.6°
Drops below altitude 10° 11:49:39 10° 198° (SSW) 1,763 6.2 -16.8°
Sets 11:51:46 0° 197° (SSW) 2,660 7.2 -16.4°
